Location: Newark
(12.5331°N, 56.4669°W)
Time: 07:24:01
(UTC+00:00)

LightSail 2 - Pass Details

Date: 27 January 2020
Orbit: 699 x 722 km, 24.0° (Epoch: 20 February)

Event Time Altitude Azimuth Distance (km) Brightness Sun altitude
Rises 23:46:17 0° 293° (WNW) 3,075 9.2 -29.2°
Reaches altitude 10° 23:48:43 10° 294° (WNW) 2,161 8.2 -29.8°
Enters shadow 23:52:00 41° 298° (WNW) 1,020 6.2 -30.5°
